Colorado Springs, CO

1:25 AM MST on February 26, 2017 (GMT -0700)
Usaf Academy

Weather History for KAFF - May, 2013

Change the Weather History Date:

Friday, May 24, 2013

  Actual Average Record
Temperature  
Mean Temperature 66 °F -  
Max Temperature 83 °F 68 °F 83 °F (2013)
Min Temperature 50 °F 42 °F 30 °F (2007)
Cooling Degree Days 1    
Growing Degree Days 16 (Base 50)    
Moisture  
Dew Point 30 °F    
Average Humidity 47    
Maximum Humidity 100    
Minimum Humidity 6    
Precipitation  
Precipitation 0.00 in - - ()
Sea Level Pressure  
Sea Level Pressure 29.99 in    
Wind  
Wind Speed 14 mph (South)    
Max Wind Speed 21 mph    
Max Gust Speed 31 mph    
Visibility 8 miles    
Events Fog    
Averages and records for this station are not official NWS values.
T = Trace of Precipitation, MM = Missing Value Source: NWS Daily Summary

Daily Weather History Graph

Daily Weather History Graph

Search for Another Location

Airport or City:

Trip Planner

Search our weather history database for the weather conditions in past years. The results will help you decide how hot, cold, wet, or windy it might be!

Date:

Astronomy

May. 24, 2013 Rise Set
Actual Time 5:39 AM MDT 8:13 PM MDT
Civil Twilight 5:08 AM MDT 8:44 PM MDT
Nautical Twilight 4:30 AM MDT 9:22 PM MDT
Astronomical Twilight 3:47 AM MDT 10:05 PM MDT
Moon 7:58 PM MDT (5/24) 5:13 AM MDT (5/24)
Length of Visible Light 15h 35m
Length of Day
14h 33m
Full, 100% of the Moon is Illuminated
May 24
Full
May 24
Full
May 31
Last Quarter
Jun 8
New
Jun 16
First Quarter

Hourly Weather History & Observations

Time (MDT) Temp. Dew Point Humidity Pressure Visibility Wind Dir Wind Speed Gust Speed Precip Events Conditions
12:03 AM 50.0 °F 50.0 °F 100% 30.13 in 10.0 mi SSE 17.3 mph - N/A   Overcast
12:33 AM 50.0 °F 50.0 °F 100% 30.13 in 10.0 mi SE 19.6 mph - N/A   Overcast
12:58 AM 50.0 °F 49.8 °F 99% 30.02 in 10.0 mi SE 19.6 mph - N/A   Overcast
1:38 AM 50.0 °F 50.0 °F 100% 30.12 in 4.0 mi South 15.0 mph - N/A   Overcast
1:53 AM 50.0 °F 50.0 °F 100% 30.11 in 3.0 mi SSE 16.1 mph - N/A   Overcast
1:58 AM 50.2 °F 50.2 °F 100% 29.99 in 2.5 mi SSE 15.0 mph - N/A   Overcast
2:18 AM 50.0 °F 50.0 °F 100% 30.11 in 1.5 mi SSE 12.7 mph - N/A   Overcast
2:32 AM 50.0 °F 50.0 °F 100% 30.10 in 1.0 mi SSE 11.5 mph - N/A   Light Drizzle
2:40 AM 50.0 °F 50.0 °F 100% 30.10 in 0.8 mi SSE 16.1 mph - N/A   Mist
2:58 AM 50.7 °F 50.7 °F 100% 29.97 in 0.5 mi SSE 12.7 mph - 0.00 in Fog Fog
3:43 AM 50.0 °F 50.0 °F 100% 30.08 in 1.2 mi South 11.5 mph - N/A   Overcast
3:53 AM 50.0 °F 50.0 °F 100% 30.08 in 2.0 mi South 12.7 mph - N/A   Overcast
3:58 AM 50.0 °F 50.0 °F 100% 29.95 in 3.0 mi South 11.5 mph - N/A   Overcast
4:03 AM 50.0 °F 50.0 °F 100% 30.08 in 4.0 mi South 12.7 mph - N/A   Overcast
4:23 AM 50.0 °F 50.0 °F 100% 30.09 in 3.0 mi South 10.4 mph - N/A   Overcast
4:38 AM 50.0 °F 50.0 °F 100% 30.09 in 4.0 mi South 10.4 mph - N/A   Overcast
4:53 AM 50.0 °F 50.0 °F 100% 30.09 in 5.0 mi South 10.4 mph - N/A   Overcast
4:58 AM 50.9 °F 50.9 °F 100% 29.93 in 6.0 mi SSE 10.4 mph - N/A   Overcast
5:48 AM 51.8 °F 51.8 °F 100% 30.09 in 7.0 mi South 10.4 mph - N/A   Overcast
5:58 AM 50.9 °F 50.9 °F 100% 29.95 in 8.0 mi South 8.1 mph - N/A   Overcast
6:33 AM 51.8 °F 51.8 °F 100% 30.10 in 10.0 mi South 6.9 mph - N/A   Overcast
6:58 AM 51.4 °F 51.4 °F 100% 29.96 in 10.0 mi SE 5.8 mph - N/A   Overcast
7:38 AM 51.8 °F 51.8 °F 100% 30.12 in 10.0 mi Variable 2.3 mph - N/A   Overcast
7:48 AM 51.8 °F 50.0 °F 94% 30.12 in 10.0 mi South 3.5 mph - N/A   Overcast
7:58 AM 53.2 °F 50.5 °F 91% 29.97 in 10.0 mi ESE 5.8 mph - N/A   Mostly Cloudy
8:03 AM 53.6 °F 50.0 °F 88% 30.12 in 10.0 mi Variable 4.6 mph - N/A   Scattered Clouds
8:58 AM 57.7 °F 48.6 °F 71% 29.97 in 10.0 mi Variable 3.5 mph - N/A   Clear
9:58 AM 61.2 °F 48.2 °F 62% 29.94 in 10.0 mi SSE 6.9 mph - N/A   Clear
10:58 AM 66.2 °F 47.5 °F 51% 29.91 in 10.0 mi South 12.7 mph - N/A   Clear
11:58 AM 72.3 °F 40.1 °F 31% 29.88 in 10.0 mi SE 10.4 mph 18.4 mph N/A   Partly Cloudy
12:43 PM 78.8 °F 14.0 °F 9% 30.07 in 10.0 mi SW 20.7 mph 25.3 mph N/A   Partly Cloudy
12:47 PM 78.8 °F 14.0 °F 9% 30.07 in 10.0 mi SSW 13.8 mph 25.3 mph N/A   Partly Cloudy
12:48 PM 78.8 °F 14.0 °F 9% 30.07 in 10.0 mi South 16.1 mph 25.3 mph N/A   Partly Cloudy
12:53 PM 78.8 °F 14.0 °F 9% 30.07 in 10.0 mi South 18.4 mph 25.3 mph N/A   Partly Cloudy
12:58 PM 79.0 °F 14.7 °F 9% 29.83 in 10.0 mi South 12.7 mph 25.3 mph N/A   Partly Cloudy
1:05 PM 78.8 °F 14.0 °F 9% 30.06 in 10.0 mi SSW 16.1 mph 28.8 mph N/A   Partly Cloudy
1:06 PM 78.8 °F 14.0 °F 9% 30.06 in 10.0 mi SSW 15.0 mph 28.8 mph N/A   Partly Cloudy
1:48 PM 80.6 °F 14.0 °F 8% 30.06 in 10.0 mi South 17.3 mph 23.0 mph N/A   Partly Cloudy
1:58 PM 80.2 °F 11.3 °F 7% 29.81 in 10.0 mi South 12.7 mph 29.9 mph N/A   Clear
1:59 PM 80.6 °F 10.4 °F 7% 30.05 in 10.0 mi SW 12.7 mph 29.9 mph N/A   Clear
2:00 PM 80.6 °F 10.4 °F 7% 30.05 in 10.0 mi SW 12.7 mph 29.9 mph N/A   Clear
2:15 PM 80.6 °F 12.2 °F 8% 30.05 in 10.0 mi WSW 13.8 mph 23.0 mph N/A   Clear
2:49 PM 80.6 °F 12.2 °F 8% 30.04 in 10.0 mi South 16.1 mph 25.3 mph N/A   Clear
2:54 PM 80.6 °F 12.2 °F 8% 30.04 in 10.0 mi South 15.0 mph 25.3 mph N/A   Clear
2:58 PM 81.5 °F 12.2 °F 7% 29.77 in 10.0 mi South 17.3 mph 25.3 mph N/A   Clear
3:03 PM 82.4 °F 10.4 °F 7% 30.03 in 10.0 mi SW 15.0 mph 24.2 mph N/A   Clear
3:04 PM 82.4 °F 10.4 °F 7% 30.03 in 10.0 mi SW 13.8 mph 20.7 mph N/A   Clear
3:09 PM 80.6 °F 12.2 °F 8% 30.03 in 10.0 mi South 16.1 mph 23.0 mph N/A   Clear
3:10 PM 80.6 °F 14.0 °F 8% 30.03 in 10.0 mi South 17.3 mph 23.0 mph N/A   Clear
3:11 PM 80.6 °F 15.8 °F 9% 30.03 in 10.0 mi SSE 17.3 mph 23.0 mph N/A   Clear
3:43 PM 82.4 °F 15.8 °F 8% 30.02 in 10.0 mi South 18.4 mph 31.1 mph N/A   Clear
3:58 PM 81.5 °F 14.5 °F 8% 29.75 in 10.0 mi SSE 18.4 mph - N/A   Partly Cloudy
4:28 PM 82.4 °F 12.2 °F 7% 30.01 in 10.0 mi SSW 12.7 mph 20.7 mph N/A   Clear
4:58 PM 80.1 °F 10.2 °F 7% 29.73 in 10.0 mi ESE 9.2 mph - N/A   Clear
5:05 PM 82.4 °F 8.6 °F 6% 29.99 in 10.0 mi WSW 12.7 mph 25.3 mph N/A   Clear
5:08 PM 82.4 °F 8.6 °F 6% 29.99 in 10.0 mi SSW 13.8 mph 25.3 mph N/A   Clear
5:09 PM 82.4 °F 8.6 °F 6% 29.99 in 10.0 mi SSW 13.8 mph 25.3 mph N/A   Clear
5:18 PM 82.4 °F 8.6 °F 6% 29.99 in 10.0 mi SW 20.7 mph 29.9 mph N/A   Partly Cloudy
5:58 PM 80.8 °F 8.2 °F 6% 29.73 in 10.0 mi SSW 18.4 mph - N/A   Clear
5:59 PM 80.6 °F 8.6 °F 6% 29.99 in 10.0 mi SSW 17.3 mph - N/A   Clear
6:58 PM 79.7 °F 8.1 °F 6% 29.73 in 10.0 mi SSW 12.7 mph - N/A   Clear
7:58 PM 75.2 °F 7.3 °F 7% 29.77 in 10.0 mi SSW 10.4 mph - N/A   Partly Cloudy
8:58 PM 68.7 °F 11.1 °F 11% 29.81 in 10.0 mi Variable 1.2 mph - N/A   Clear
9:58 PM 59.2 °F 20.1 °F 22% 29.84 in 10.0 mi North 10.4 mph - N/A   Clear
10:58 PM 61.2 °F 24.4 °F 25% 29.83 in 10.0 mi North 13.8 mph - N/A   Clear
11:58 PM 57.4 °F 35.4 °F 44% 29.83 in 10.0 mi NE 5.8 mph - N/A   Clear